ASTROSAT

Last updated on Thu Nov 21 2024 00:03:26 GMT+0000 (Coordinated Universal Time)

1 40930U 15052A 24325.57856108 .00003245 00000+0 33055-3 0 9997 2 40930 5.9983 318.4855 0007720 136.5686 223.5050 14.80375306494615
UTC large
Height (km)
Speed (km/s)
/
Latitude / Longitude
Inclination (degrees)
Orbital Period (minutes)
Azimuth
Elevation
Range (km)
Doppler Factor

Next 0 passes for location: London (51.5072 / 0.1276)

Sorry there are no passes over London.